CW9669 Weather Reports


Display with metric or nautical units.
time (UTC)temp
F
wind
direction
speed
MPH
gust
MPH
rain 1hr
in
rain 24hr
in
rain mn
in
humidity
%
barometer
mb
20260509145010 48 160 0.0 0.0 0.00 0.00 0.00 94 1018.8
20260509144009 48 161 0.0 0.0 0.00 0.00 0.00 95 1018.8
20260509143005 47 161 0.0 1.0 0.00 0.00 0.00 95 1019.0
20260509142004 46 142 0.0 1.0 0.00 0.00 0.00 95 1018.9
20260509141005 45 142 0.0 0.0 0.00 0.00 0.00 95 1019.0
20260509140006 45 142 0.0 1.0 0.00 0.00 0.00 95 1018.9
20260509135007 44 11 0.0 0.0 0.00 0.00 0.00 95 1018.9
20260509134004 44 11 0.0 0.0 0.00 0.00 0.00 95 1019.1
20260509133444 44 11 0.0 0.0 0.00 0.00 0.00 94 1019.0
20260509132436 44 11 0.0 0.0 0.00 0.00 0.00 94 1018.8
20260509131003 44 11 0.0 0.0 0.00 0.00 0.00 94 1019.2
20260509130002 45 11 0.0 0.0 0.00 0.00 0.00 94 1019.2
20260509125001 44 11 0.0 0.0 0.00 0.00 0.00 94 1019.3
20260509124004 45 11 0.0 0.0 0.00 0.00 0.00 93 1019.3
20260509123001 45 11 0.0 0.0 0.00 0.00 0.00 93 1019.1
20260509122003 45 11 0.0 0.0 0.00 0.00 0.00 93 1019.2
20260509121003 46 11 0.0 0.0 0.00 0.00 0.00 93 1019.1
20260509120008 46 11 0.0 0.0 0.00 0.00 0.00 93 1019.4
20260509115439 46 11 0.0 0.0 0.00 0.00 0.00 93 1019.4
20260509114436 46 11 0.0 0.0 0.00 0.00 0.00 93 1019.2
20260509112959 47 11 0.0 0.0 0.00 0.00 0.00 93 1019.0
20260509111959 47 84 0.0 0.0 0.00 0.00 0.00 93 1019.3
20260509111001 47 84 0.0 1.0 0.00 0.00 0.00 92 1019.3
20260509105954 47 84 0.0 0.0 0.00 0.00 0.00 92 1019.5
20260509104952 47 84 0.0 0.0 0.00 0.00 0.00 93 1019.5
20260509103952 47 96 0.0 0.0 0.00 0.00 0.00 92 1019.6
20260509102949 47 96 0.0 0.0 0.00 0.00 0.00 92 1019.6
20260509101951 47 96 0.0 0.0 0.00 0.00 0.00 91 1019.6
20260509100950 48 96 0.0 0.0 0.00 0.00 0.00 91 1019.5
20260509100434 48 96 0.0 0.0 0.00 0.00 0.00 91 1019.6
20260509094950 49 96 0.0 0.0 0.00 0.00 0.00 91 1019.6
20260509093948 49 96 0.0 1.0 0.00 0.00 0.00 91 1019.6
20260509092950 49 93 0.0 0.0 0.00 0.00 0.00 90 1019.5
20260509091948 49 93 0.0 0.0 0.00 0.00 0.00 90 1019.7
20260509090948 49 93 0.0 0.0 0.00 0.00 0.00 89 1019.6
20260509085948 50 93 0.0 0.0 0.00 0.00 0.00 89 1019.8
20260509084948 50 93 0.0 0.0 0.00 0.00 0.00 88 1019.9
20260509083948 51 93 0.0 0.0 0.00 0.00 0.00 88 1019.9
20260509082950 51 93 0.0 0.0 0.00 0.00 0.00 87 1020.0
20260509081949 51 93 0.0 0.0 0.00 0.00 0.00 86 1019.9
20260509080941 52 93 0.0 0.0 0.00 0.00 0.00 85 1020.0
20260509075942 53 93 0.0 0.0 0.00 0.00 0.00 83 1020.0
20260509074942 53 93 0.0 2.0 0.00 0.00 0.00 83 1020.1
20260509074424 53 111 0.0 1.0 0.00 0.00 0.00 84 1020.2
20260509072943 53 313 0.0 2.0 0.00 0.00 0.00 85 1020.2
20260509071946 53 348 0.0 0.0 0.00 0.00 0.00 86 1020.3
20260509071504 54 348 0.0 0.0 0.00 0.00 0.00 85 1020.3
20260509071338 53 348 0.0 0.0 0.00 0.00 0.00 85 1020.4
20260509064942 54 348 0.0 0.0 0.00 0.00 0.00 85 1020.3
20260509063940 54 348 0.0 0.0 0.00 0.00 0.00 85 1020.5
20260509062941 55 348 0.0 0.0 0.00 0.00 0.00 84 1020.4
20260509061940 55 348 0.0 0.0 0.00 0.00 0.00 83 1020.4
20260509061856 55 348 0.0 0.0 0.00 0.00 0.00 83 1020.3
20260509055938 56 348 0.0 0.0 0.00 0.00 0.00 82 1020.3
20260509054938 56 348 0.0 1.0 0.00 0.00 0.00 81 1020.3
20260509053939 56 348 0.0 0.0 0.00 0.00 0.00 81 1020.3
20260509052938 57 348 0.0 0.0 0.00 0.00 0.00 80 1020.3
20260509051938 57 348 0.0 0.0 0.00 0.00 0.00 79 1020.3
20260509051426 58 348 0.0 0.0 0.00 0.00 0.00 77 1020.1
20260509045938 58 348 0.0 0.0 0.00 0.00 0.00 76 1019.9
20260509044938 59 348 0.0 0.0 0.00 0.00 0.00 74 1019.9
20260509043937 60 348 0.0 0.0 0.00 0.00 0.00 72 1019.8
20260509042937 60 348 0.0 1.0 0.00 0.00 0.00 71 1019.9
20260509041936 61 348 0.0 0.0 0.00 0.00 0.00 69 1019.8
20260509040936 62 348 0.0 2.0 0.00 0.00 0.00 68 1019.6
20260509040408 62 346 0.0 2.0 0.00 0.00 0.00 67 1019.4
20260509034935 63 16 1.0 4.0 0.00 0.00 0.00 65 1019.3
20260509033937 64 326 1.0 3.0 0.00 0.00 0.00 64 1019.3
20260509032935 64 326 1.0 4.0 0.00 0.00 0.00 62 1019.2
20260509032407 65 339 1.0 3.0 0.00 0.00 0.00 61 1019.1
20260509030934 65 344 2.0 5.0 0.00 0.00 0.00 61 1019.1
20260509030429 65 309 1.0 4.0 0.00 0.00 0.00 61 1019.1
20260509024929 66 288 2.0 6.0 0.00 0.00 0.00 61 1019.1
20260509023929 66 297 2.0 6.0 0.00 0.00 0.00 59 1019.1
20260509022928 67 343 1.0 5.0 0.00 0.00 0.00 58 1019.1
20260509021931 67 313 2.0 6.0 0.00 0.00 0.00 56 1019.1
20260509020929 67 285 2.0 6.0 0.00 0.00 0.00 56 1019.0
20260509015928 68 300 2.0 5.0 0.00 0.00 0.00 55 1018.9
20260509014928 68 311 3.0 8.0 0.00 0.00 0.00 55 1018.9
20260509013928 68 322 3.0 8.0 0.00 0.00 0.00 53 1018.9
20260509012928 69 331 3.0 6.0 0.00 0.00 0.00 53 1019.0
20260509011930 69 329 3.0 8.0 0.00 0.00 0.00 51 1019.0
20260509010929 70 319 3.0 8.0 0.00 0.00 0.00 49 1019.0
20260509005931 70 345 2.0 6.0 0.00 0.00 0.00 51 1019.2
20260509004933 70 22 2.0 5.0 0.00 0.00 0.00 50 1019.2
20260509003933 70 304 3.0 6.0 0.00 0.00 0.00 51 1019.2
20260509002929 70 38 3.0 7.0 0.00 0.00 0.00 50 1019.2
20260509001929 70 350 2.0 8.0 0.00 0.00 0.00 51 1019.2
20260509000929 69 90 3.0 10.0 0.00 0.00 0.00 51 1019.1
20260508235929 70 67 3.0 9.0 0.00 0.00 0.00 49 1019.1
20260508235405 71 278 3.0 8.0 0.00 0.00 0.00 48 1019.1
20260508233927 70 310 2.0 9.0 0.00 0.00 0.00 48 1019.1
20260508232928 70 39 4.0 11.0 0.00 0.00 0.00 49 1019.1
20260508232403 70 296 3.0 8.0 0.00 0.00 0.00 49 1019.4
20260508230927 70 44 4.0 8.0 0.00 0.00 0.00 49 1019.3
20260508225927 69 300 3.0 10.0 0.00 0.00 0.00 50 1019.2
20260508224928 69 319 3.0 9.0 0.00 0.00 0.00 49 1019.2
20260508223928 69 298 4.0 12.0 0.00 0.00 0.00 48 1019.3
20260508222927 69 295 2.0 6.0 0.00 0.00 0.00 49 1019.4
20260508221928 68 41 2.0 5.0 0.00 0.00 0.00 50 1019.5
20260508221839 68 270 2.0 6.0 0.00 0.00 0.00 50 1019.6
20260508215928 68 15 3.0 9.0 0.00 0.00 0.00 50 1019.7
20260508214927 67 333 2.0 10.0 0.00 0.00 0.00 51 1019.9
20260508214404 67 302 1.0 5.0 0.00 0.00 0.00 50 1020.0
20260508212928 67 205 1.0 5.0 0.00 0.00 0.00 51 1020.0
20260508211928 66 309 1.0 4.0 0.00 0.00 0.00 52 1020.1
20260508210929 66 298 3.0 7.0 0.00 0.00 0.00 52 1020.2
20260508205927 65 344 2.0 8.0 0.00 0.00 0.00 52 1020.2
20260508204928 65 309 3.0 11.0 0.00 0.00 0.00 52 1020.4
20260508203928 65 286 2.0 7.0 0.00 0.00 0.00 52 1020.3
20260508202928 64 280 3.0 9.0 0.00 0.00 0.00 54 1020.4
20260508201927 64 317 1.0 4.0 0.00 0.00 0.00 54 1020.3
20260508201416 63 338 2.0 6.0 0.00 0.00 0.00 55 1020.5
20260508195931 64 306 1.0 4.0 0.00 0.00 0.00 55 1020.6
20260508194935 62 280 1.0 6.0 0.00 0.00 0.00 55 1020.6
20260508193930 62 296 1.0 8.0 0.00 0.00 0.00 58 1020.8
20260508192930 61 286 1.0 4.0 0.00 0.00 0.00 58 1020.9
20260508191929 62 338 1.0 4.0 0.00 0.00 0.00 58 1020.9
20260508190930 61 160 1.0 3.0 0.00 0.00 0.00 59 1020.9
20260508185928 60 211 1.0 4.0 0.00 0.00 0.00 61 1020.9
20260508184927 60 280 1.0 6.0 0.00 0.00 0.00 63 1020.9
20260508184408 59 335 1.0 8.0 0.00 0.00 0.00 62 1021.0
20260508182928 58 166 2.0 8.0 0.00 0.00 0.00 64 1021.1
20260508181929 57 279 2.0 5.0 0.00 0.00 0.00 67 1021.1
20260508180923 57 289 1.0 7.0 0.00 0.00 0.00 67 1021.3
20260508175923 56 346 1.0 6.0 0.00 0.00 0.00 69 1021.2
20260508174922 56 202 1.0 3.0 0.00 0.00 0.00 70 1021.2
20260508174406 55 293 1.0 4.0 0.00 0.00 0.00 72 1021.0
20260508172922 55 193 1.0 4.0 0.00 0.00 0.00 73 1021.0
20260508171922 54 317 1.0 2.0 0.00 0.00 0.00 75 1020.9
20260508170923 53 313 1.0 3.0 0.00 0.00 0.00 75 1020.7
20260508170410 53 166 0.0 2.0 0.00 0.00 0.00 77 1020.7
20260508165412 53 159 0.0 3.0 0.00 0.00 0.00 78 1020.6
20260508163921 52 266 0.0 2.0 0.00 0.00 0.00 78 1020.5
20260508162922 53 223 0.0 3.0 0.00 0.00 0.00 77 1020.4
20260508162854 52 89 0.0 3.0 0.00 0.00 0.00 79 1020.2
20260508160919 52 226 1.0 3.0 0.00 0.00 0.00 79 1020.3
20260508155917 52 126 1.0 3.0 0.00 0.00 0.00 78 1020.3
20260508154918 52 249 1.0 4.0 0.00 0.00 0.00 78 1020.3
20260508153918 51 246 0.0 2.0 0.00 0.00 0.00 79 1020.0
20260508152918 51 148 1.0 3.0 0.00 0.00 0.00 79 1020.4
20260508151917 51 142 1.0 2.0 0.00 0.00 0.00 78 1020.4
20260508150918 51 175 0.0 2.0 0.00 0.00 0.00 78 1020.3
20260508150420 51 138 0.0 2.0 0.00 0.00 0.00 77 1020.3
20260508145400 51 236 0.0 3.0 0.00 0.00 0.00 78 1020.5